Home   Weather   Cambridge   Past weeks
Flag for Canada

Past Weather in Cambridge, Ontario, Canada — Yesterday and Last 2 Weeks

Now
54 °F

Overcast.


Feels Like: 52 °F
Forecast: 77 / 53 °F
Wind: 7 mph from Northwest

Location: Waterloo Well

Current Time: Jul 23, 2019 at 7:26:45 am

Latest Report: Jul 23, 2019 at 6:00 am


Visibility: 9 mi

Pressure: 29.94 "Hg

Humidity: 88%

Dew Point: 50 °F

Location of CambridgeLocation

Past Weather in Cambridge — Graph

°F

Cambridge Temperature Yesterday

Maximum temperature yesterday: 77 °F (at 1:00 pm)
Minimum temperature yesterday: 61 °F (at 6:19 am)
Average temperature yesterday: 67 °F

High & Low Weather Summary for the Past Weeks

 TemperatureHumidityPressure
High90 °F (Jul 20, 2:00 pm)100% (Jul 8, 6:00 am)30.14 "Hg (Jul 8, 6:00 am)
Low46 °F (Jul 15, 5:44 am)39% (Jul 8, 3:00 pm)29.75 "Hg (Jul 11, 12:38 pm)
Average71 °F78%29.93 "Hg
* Reported Jul 8 6:00 am — Jul 23 6:00 am, Cambridge. Weather by CustomWeather, © 2019

Note: Actual official high and low records may vary slightly from our data, if they occured in-between our weather recording intervals... More about our weather records

Advertising

Cambridge Weather History for the Previous 24 Hours

Scroll right to see more
 ConditionsComfort  
Time TempWeatherWind HumidityBarometerVisibility
6:00 am
Tue, Jul 23
54 °FOvercast.7 mph88%29.94 "Hg9 mi
5:00 am54 °FPassing clouds.6 mph88%29.94 "Hg9 mi
4:00 am55 °FClear.7 mph88%29.93 "Hg9 mi
3:00 am57 °FClear.6 mph82%29.93 "Hg9 mi
2:00 am57 °FClear.6 mph82%29.93 "Hg9 mi
1:00 am61 °FPassing clouds.8 mph72%29.94 "Hg9 mi
12:00 am63 °FPassing clouds.6 mph73%29.94 "Hg9 mi
11:00 pm
Mon, Jul 22
64 °FPassing clouds.6 mph78%29.94 "Hg9 mi
10:00 pm66 °FOvercast.5 mph83%29.93 "Hg9 mi
9:00 pm68 °FMostly cloudy.3 mph78%29.91 "Hg9 mi
8:00 pm70 °FBroken clouds.12 mph78%29.89 "Hg9 mi
7:00 pm70 °FSunny.3 mph83%29.87 "Hg9 mi
6:49 pm70 °FScattered clouds.3 mph83%29.87 "Hg9 mi
6:15 pm70 °FLight rain. Cloudy.7 mph78%29.86 "Hg9 mi
6:00 pm72 °FCloudy.8 mph78%29.87 "Hg9 mi
5:36 pm70 °FMostly cloudy.3 mph83%29.86 "Hg9 mi
5:14 pm70 °FLight rain. Cloudy.9 mph78%29.86 "Hg9 mi
5:00 pm72 °FCloudy.12 mph73%29.85 "Hg9 mi
4:00 pm73 °FPartly sunny.12 mph65%29.85 "Hg9 mi
3:00 pm75 °FPartly sunny.13 mph61%29.86 "Hg9 mi
2:00 pm77 °FScattered clouds.8 mph61%29.86 "Hg9 mi
1:00 pm77 °FPassing clouds.8 mph61%29.87 "Hg9 mi
12:00 pm73 °FScattered clouds.8 mph69%29.88 "Hg9 mi
11:00 am70 °FBroken clouds.2 mph73%29.90 "Hg9 mi
10:00 am70 °FPartly sunny.3 mph78%29.91 "Hg9 mi
9:00 am66 °FBroken clouds.3 mph78%29.91 "Hg9 mi
8:00 am63 °FOvercast.3 mph88%29.91 "Hg9 mi
7:00 am63 °FOvercast.2 mph88%29.90 "Hg9 mi
Weather by CustomWeather, © 2019

See weather overview